LNI266 WARR-WALL

Flight info

Callsign LNI266
Flight time 1h 13m
Altitude 33000
Route RAMPY T13 IKAPI T11 KAYAN
Aircraft B739/M-SDE2E3FGHIRWXY/LB1

Departure

Time 2026-05-08 13:31
Airport Juanda International Airport (WARR)

Arrival

Time 2026-05-08 14:44
Airport Sultan Aji Muhammad Sulaiman Sepinggan International Airport (WALL)
Time Latitude Longitude Altitude Speed Heading
2026-05-08 12:52 -7.37589 112.79469 8 ft 0 kts
2026-05-08 13:20 -7.37595 112.79468 -14 ft 4 kts
2026-05-08 13:20 -7.37622 112.79464 18 ft 4 kts
2026-05-08 13:20 -7.37645 112.79460 9 ft 2 kts
2026-05-08 13:21 -7.37667 112.79452 10 ft 4 kts 52°
2026-05-08 13:21 -7.37674 112.79429 11 ft 4 kts 94°
2026-05-08 13:21 -7.37673 112.79418 11 ft 1 kts 99°
2026-05-08 13:23 -7.37673 112.79419 8 ft 0 kts 99°
2026-05-08 13:24 -7.37680 112.79434 9 ft 5 kts 128°
2026-05-08 13:24 -7.37733 112.79444 8 ft 11 kts 185°
2026-05-08 13:24 -7.37830 112.79429 8 ft 16 kts 188°
2026-05-08 13:24 -7.37912 112.79364 8 ft 17 kts 263°
2026-05-08 13:25 -7.37899 112.79251 8 ft 16 kts 279°
2026-05-08 13:25 -7.37881 112.79143 8 ft 15 kts 278°
2026-05-08 13:25 -7.37866 112.79039 8 ft 15 kts 278°
2026-05-08 13:25 -7.37848 112.78939 10 ft 14 kts 279°
2026-05-08 13:26 -7.37833 112.78844 8 ft 13 kts 279°
2026-05-08 13:26 -7.37818 112.78753 8 ft 13 kts 279°
2026-05-08 13:26 -7.37804 112.78665 8 ft 13 kts 279°
2026-05-08 13:26 -7.37790 112.78578 10 ft 12 kts 279°
2026-05-08 13:27 -7.37777 112.78494 10 ft 12 kts 279°
2026-05-08 13:27 -7.37763 112.78413 8 ft 12 kts 279°
2026-05-08 13:27 -7.37751 112.78333 8 ft 11 kts 279°
2026-05-08 13:27 -7.37738 112.78256 8 ft 11 kts 279°
2026-05-08 13:28 -7.37725 112.78172 8 ft 13 kts 278°
2026-05-08 13:28 -7.37710 112.78078 8 ft 14 kts 279°
2026-05-08 13:28 -7.37692 112.77968 8 ft 19 kts 279°
2026-05-08 13:28 -7.37668 112.77822 8 ft 23 kts 279°
2026-05-08 13:29 -7.37641 112.77655 8 ft 26 kts 279°
2026-05-08 13:29 -7.37620 112.77520 8 ft 17 kts 279°
2026-05-08 13:29 -7.37624 112.77405 9 ft 17 kts 224°
2026-05-08 13:29 -7.37736 112.77372 8 ft 17 kts 185°
2026-05-08 13:30 -7.37778 112.77419 8 ft 9 kts 102°
2026-05-08 13:30 -7.37782 112.77442 8 ft 0 kts 99°
2026-05-08 13:30 -7.37783 112.77445 8 ft 4 kts 99°
2026-05-08 13:30 -7.37802 112.77576 8 ft 34 kts 98°
2026-05-08 13:31 -7.37863 112.77938 9 ft 80 kts 98°
2026-05-08 13:31 -7.37984 112.78696 9 ft 136 kts 99°
2026-05-08 13:31 -7.38163 112.79764 171 ft 166 kts 99°
2026-05-08 13:31 -7.38355 112.80928 746 ft 173 kts 99°
2026-05-08 13:32 -7.38554 112.82167 1279 ft 180 kts 98°
2026-05-08 13:32 -7.38650 112.83397 1937 ft 181 kts 78°
2026-05-08 13:32 -7.37919 112.84504 2169 ft 208 kts 36°
2026-05-08 13:32 -7.36545 112.85180 2377 ft 233 kts 25°
2026-05-08 13:33 -7.34978 112.85847 2573 ft 256 kts 25°
2026-05-08 13:33 -7.33285 112.86565 3039 ft 270 kts 24°
2026-05-08 13:33 -7.31544 112.87307 3818 ft 270 kts 24°
2026-05-08 13:33 -7.29806 112.88055 4590 ft 274 kts 24°
2026-05-08 13:34 -7.28041 112.88821 5310 ft 277 kts 24°
2026-05-08 13:34 -7.26261 112.89599 6033 ft 281 kts 24°
2026-05-08 13:34 -7.24461 112.90391 6752 ft 283 kts 24°
2026-05-08 13:34 -7.22652 112.91190 7446 ft 285 kts 24°
2026-05-08 13:35 -7.20827 112.91998 8132 ft 288 kts 25°
2026-05-08 13:35 -7.18982 112.92817 8822 ft 291 kts 25°
2026-05-08 13:35 -7.17125 112.93642 9520 ft 293 kts 25°
2026-05-08 13:35 -7.15248 112.94476 10155 ft 296 kts 25°
2026-05-08 13:36 -7.13311 112.95339 10413 ft 315 kts 25°
2026-05-08 13:36 -7.11244 112.96260 10559 ft 335 kts 25°
2026-05-08 13:36 -7.09054 112.97236 10746 ft 352 kts 25°
2026-05-08 13:36 -7.06789 112.98244 11181 ft 359 kts 25°
2026-05-08 13:37 -7.04495 112.99265 11725 ft 362 kts 25°
2026-05-08 13:37 -7.02186 113.00292 12286 ft 365 kts 24°
2026-05-08 13:37 -6.99852 113.01331 12813 ft 368 kts 24°
2026-05-08 13:37 -6.97498 113.02379 13334 ft 372 kts 24°
2026-05-08 13:38 -6.95122 113.03436 13827 ft 375 kts 24°
2026-05-08 13:38 -6.92727 113.04502 14260 ft 379 kts 24°
2026-05-08 13:38 -6.90301 113.05581 14699 ft 382 kts 25°
2026-05-08 13:38 -6.87858 113.06668 15150 ft 385 kts 25°
2026-05-08 13:39 -6.85400 113.07762 15589 ft 388 kts 25°
2026-05-08 13:39 -6.82916 113.08867 16020 ft 391 kts 25°
2026-05-08 13:39 -6.80414 113.09980 16440 ft 395 kts 25°
2026-05-08 13:39 -6.77895 113.11100 16859 ft 397 kts 25°
2026-05-08 13:40 -6.75357 113.12229 17277 ft 401 kts 25°
2026-05-08 13:40 -6.73667 113.12981 17530 ft 403 kts 25°
2026-05-08 13:40 -6.71091 113.14126 17922 ft 406 kts 25°
2026-05-08 13:40 -6.68495 113.15280 18292 ft 409 kts 25°
2026-05-08 13:41 -6.65888 113.16439 18643 ft 411 kts 25°
2026-05-08 13:41 -6.63268 113.17603 19005 ft 413 kts 25°
2026-05-08 13:41 -6.60638 113.18772 19373 ft 414 kts 25°
2026-05-08 13:41 -6.57996 113.19946 19723 ft 416 kts 25°
2026-05-08 13:42 -6.55344 113.21125 20068 ft 418 kts 25°
2026-05-08 13:42 -6.52673 113.22312 20403 ft 420 kts 25°
2026-05-08 13:42 -6.50001 113.23498 20805 ft 420 kts 25°
2026-05-08 13:42 -6.47321 113.24687 21111 ft 423 kts 25°
2026-05-08 13:43 -6.44632 113.25881 21457 ft 424 kts 24°
2026-05-08 13:43 -6.41929 113.27082 21828 ft 424 kts 25°
2026-05-08 13:43 -6.39228 113.28282 22172 ft 425 kts 24°
2026-05-08 13:43 -6.36520 113.29485 22511 ft 426 kts 24°
2026-05-08 13:44 -6.33801 113.30692 22841 ft 427 kts 24°
2026-05-08 13:44 -6.31078 113.31901 23159 ft 429 kts 24°
2026-05-08 13:44 -6.28344 113.33115 23457 ft 430 kts 24°
2026-05-08 13:44 -6.25604 113.34330 23708 ft 431 kts 24°
2026-05-08 13:45 -6.22867 113.35577 23945 ft 433 kts 25°
2026-05-08 13:45 -6.20142 113.36891 24163 ft 435 kts 26°
2026-05-08 13:45 -6.17427 113.38232 24386 ft 436 kts 26°
2026-05-08 13:45 -6.14700 113.39586 24612 ft 438 kts 26°
2026-05-08 13:46 -6.11964 113.40942 24833 ft 439 kts 26°
2026-05-08 13:46 -6.09213 113.42300 25042 ft 441 kts 26°
2026-05-08 13:46 -6.06453 113.43656 25255 ft 442 kts 26°
2026-05-08 13:46 -6.03686 113.45011 25468 ft 444 kts 26°
2026-05-08 13:47 -6.00900 113.46373 25673 ft 445 kts 26°
2026-05-08 13:47 -5.98113 113.47734 25877 ft 447 kts 26°
2026-05-08 13:47 -5.95312 113.49101 26077 ft 448 kts 26°
2026-05-08 13:47 -5.92504 113.50472 26282 ft 449 kts 26°
2026-05-08 13:48 -5.89688 113.51846 26466 ft 451 kts 26°
2026-05-08 13:48 -5.86867 113.53223 26656 ft 452 kts 26°
2026-05-08 13:48 -5.84035 113.54606 26849 ft 453 kts 26°
2026-05-08 13:48 -5.81186 113.55996 27025 ft 455 kts 26°
2026-05-08 13:49 -5.78338 113.57386 27210 ft 456 kts 26°
2026-05-08 13:49 -5.75518 113.58762 27379 ft 457 kts 26°
2026-05-08 13:49 -5.72652 113.60160 27555 ft 459 kts 26°
2026-05-08 13:49 -5.69778 113.61562 27728 ft 460 kts 26°
2026-05-08 13:50 -5.66901 113.62965 27906 ft 461 kts 26°
2026-05-08 13:50 -5.64011 113.64375 28078 ft 462 kts 26°
2026-05-08 13:50 -5.61119 113.65785 28252 ft 463 kts 26°
2026-05-08 13:50 -5.58219 113.67199 28412 ft 464 kts 26°
2026-05-08 13:51 -5.55311 113.68617 28570 ft 465 kts 26°
2026-05-08 13:51 -5.52399 113.70037 28738 ft 466 kts 26°
2026-05-08 13:51 -5.49473 113.71463 28908 ft 467 kts 26°
2026-05-08 13:51 -5.46552 113.72887 29065 ft 468 kts 26°
2026-05-08 13:52 -5.43621 113.74315 29215 ft 469 kts 26°
2026-05-08 13:52 -5.40681 113.75748 29359 ft 470 kts 26°
2026-05-08 13:52 -5.37735 113.77183 29491 ft 471 kts 26°
2026-05-08 13:52 -5.34777 113.78624 29623 ft 473 kts 26°
2026-05-08 13:53 -5.31817 113.80066 29770 ft 474 kts 26°
2026-05-08 13:53 -5.28850 113.81511 29891 ft 475 kts 26°
2026-05-08 13:53 -5.25879 113.82958 30008 ft 476 kts 26°
2026-05-08 13:53 -5.22896 113.84411 30147 ft 476 kts 26°
2026-05-08 13:54 -5.19923 113.85859 30324 ft 475 kts 26°
2026-05-08 13:54 -5.16952 113.87306 30503 ft 475 kts 26°
2026-05-08 13:54 -5.13979 113.88753 30674 ft 474 kts 26°
2026-05-08 13:54 -5.11010 113.90198 30834 ft 475 kts 26°
2026-05-08 13:55 -5.08041 113.91643 31010 ft 474 kts 26°
2026-05-08 13:55 -5.05072 113.93089 31191 ft 474 kts 26°
2026-05-08 13:55 -4.99177 113.95958 31566 ft 474 kts 26°
2026-05-08 13:56 -4.96210 113.97406 31763 ft 473 kts 27°
2026-05-08 13:56 -4.93350 113.99031 31952 ft 473 kts 32°
2026-05-08 13:56 -4.90591 114.00821 32156 ft 472 kts 34°
2026-05-08 13:56 -4.87863 114.02663 32371 ft 472 kts 34°
2026-05-08 13:57 -4.85149 114.04516 32577 ft 472 kts 34°
2026-05-08 13:57 -4.82434 114.06364 32777 ft 471 kts 34°
2026-05-08 13:57 -4.79721 114.08195 32903 ft 470 kts 34°
2026-05-08 13:58 -4.74263 114.11841 32901 ft 472 kts 34°
2026-05-08 13:58 -4.68781 114.15475 32904 ft 473 kts 34°
2026-05-08 13:59 -4.63301 114.19102 32894 ft 471 kts 34°
2026-05-08 13:59 -4.57849 114.22711 32899 ft 469 kts 34°
2026-05-08 14:00 -4.52408 114.26313 32892 ft 468 kts 34°
2026-05-08 14:00 -4.46982 114.29906 32899 ft 467 kts 34°
2026-05-08 14:01 -4.41558 114.33496 32904 ft 468 kts 34°
2026-05-08 14:01 -4.36125 114.37091 32901 ft 468 kts 34°
2026-05-08 14:02 -4.30718 114.40670 32897 ft 469 kts 34°
2026-05-08 14:02 -4.25261 114.44280 32899 ft 470 kts 34°
2026-05-08 14:03 -4.19792 114.47898 32900 ft 471 kts 34°
2026-05-08 14:03 -4.14317 114.51519 32898 ft 472 kts 34°
2026-05-08 14:04 -4.08830 114.55147 32898 ft 473 kts 34°
2026-05-08 14:04 -4.03341 114.58775 32900 ft 473 kts 34°
2026-05-08 14:05 -3.97851 114.62405 32896 ft 473 kts 34°
2026-05-08 14:05 -3.92363 114.66032 32897 ft 473 kts 34°
2026-05-08 14:06 -3.86879 114.69657 32894 ft 472 kts 34°
2026-05-08 14:06 -3.81396 114.73279 32889 ft 472 kts 34°
2026-05-08 14:07 -3.75920 114.76896 32885 ft 471 kts 34°
2026-05-08 14:07 -3.70492 114.80482 32880 ft 470 kts 34°
2026-05-08 14:08 -3.65049 114.84077 32873 ft 469 kts 34°
2026-05-08 14:08 -3.59606 114.87671 32867 ft 468 kts 34°
2026-05-08 14:09 -3.54169 114.91261 32865 ft 468 kts 34°
2026-05-08 14:09 -3.48733 114.94849 32868 ft 468 kts 34°
2026-05-08 14:10 -3.43296 114.98438 32869 ft 469 kts 34°
2026-05-08 14:10 -3.37851 115.02032 32872 ft 469 kts 34°
2026-05-08 14:11 -3.32402 115.05627 32877 ft 469 kts 34°
2026-05-08 14:11 -3.26947 115.09226 32879 ft 470 kts 34°
2026-05-08 14:12 -3.21493 115.12824 32880 ft 470 kts 34°
2026-05-08 14:12 -3.16033 115.16426 32882 ft 470 kts 34°
2026-05-08 14:13 -3.10582 115.20021 32880 ft 469 kts 34°
2026-05-08 14:13 -3.05130 115.23616 32887 ft 469 kts 34°
2026-05-08 14:14 -2.99725 115.27179 32884 ft 469 kts 34°
2026-05-08 14:14 -2.94281 115.30769 32890 ft 468 kts 34°
2026-05-08 14:15 -2.88845 115.34352 32895 ft 468 kts 34°
2026-05-08 14:15 -2.83411 115.37934 32898 ft 468 kts 34°
2026-05-08 14:16 -2.77974 115.41517 32898 ft 468 kts 34°
2026-05-08 14:16 -2.72542 115.45097 32896 ft 468 kts 34°
2026-05-08 14:17 -2.67105 115.48679 32905 ft 469 kts 34°
2026-05-08 14:17 -2.61657 115.52269 32901 ft 470 kts 34°
2026-05-08 14:18 -2.56204 115.55861 32899 ft 468 kts 34°
2026-05-08 14:18 -2.50774 115.59438 32904 ft 468 kts 34°
2026-05-08 14:19 -2.45332 115.63022 32903 ft 467 kts 34°
2026-05-08 14:19 -2.39938 115.66575 32900 ft 461 kts 34°
2026-05-08 14:20 -2.34586 115.70100 32753 ft 463 kts 34°
2026-05-08 14:20 -2.31882 115.71881 32265 ft 466 kts 34°
2026-05-08 14:20 -2.29190 115.73655 31744 ft 462 kts 34°
2026-05-08 14:20 -2.26517 115.75414 31221 ft 457 kts 34°
2026-05-08 14:21 -2.23872 115.77161 30704 ft 454 kts 35°
2026-05-08 14:21 -2.21517 115.79173 30152 ft 450 kts 47°
2026-05-08 14:21 -2.19405 115.81452 29557 ft 447 kts 48°
2026-05-08 14:21 -2.17340 115.83765 28997 ft 443 kts 49°
2026-05-08 14:22 -2.15306 115.86052 28451 ft 438 kts 49°
2026-05-08 14:22 -2.13280 115.88308 27934 ft 434 kts 48°
2026-05-08 14:22 -2.11258 115.90536 27414 ft 430 kts 48°
2026-05-08 14:22 -2.09246 115.92734 26908 ft 427 kts 48°
2026-05-08 14:23 -2.07241 115.94912 26394 ft 423 kts 47°
2026-05-08 14:23 -2.05257 115.97063 25906 ft 420 kts 47°
2026-05-08 14:23 -2.03282 115.99204 25384 ft 418 kts 47°
2026-05-08 14:23 -2.01315 116.01336 24888 ft 415 kts 47°
2026-05-08 14:24 -1.99363 116.03452 24394 ft 413 kts 48°
2026-05-08 14:24 -1.97420 116.05559 23888 ft 411 kts 48°
2026-05-08 14:24 -1.95483 116.07660 23372 ft 410 kts 48°
2026-05-08 14:24 -1.93558 116.09748 22808 ft 407 kts 48°
2026-05-08 14:25 -1.91646 116.11822 22304 ft 404 kts 48°
2026-05-08 14:25 -1.89750 116.13878 21810 ft 400 kts 48°
2026-05-08 14:25 -1.87872 116.15915 21329 ft 397 kts 48°
2026-05-08 14:25 -1.86006 116.17938 20845 ft 394 kts 48°
2026-05-08 14:26 -1.84161 116.19942 20384 ft 391 kts 48°
2026-05-08 14:26 -1.82325 116.21937 19922 ft 388 kts 48°
2026-05-08 14:26 -1.80501 116.23919 19437 ft 387 kts 48°
2026-05-08 14:26 -1.78686 116.25892 18966 ft 385 kts 48°
2026-05-08 14:27 -1.76878 116.27857 18493 ft 383 kts 48°
2026-05-08 14:27 -1.75077 116.29815 17995 ft 382 kts 48°
2026-05-08 14:27 -1.73285 116.31762 17495 ft 379 kts 48°
2026-05-08 14:27 -1.71507 116.33693 17021 ft 376 kts 48°
2026-05-08 14:28 -1.69755 116.35601 16696 ft 369 kts 48°
2026-05-08 14:28 -1.68045 116.37471 16417 ft 361 kts 48°
2026-05-08 14:28 -1.66393 116.39281 16153 ft 355 kts 48°
2026-05-08 14:28 -1.64738 116.41096 15874 ft 351 kts 48°
2026-05-08 14:29 -1.63100 116.42891 15633 ft 349 kts 48°
2026-05-08 14:29 -1.61445 116.44705 15372 ft 347 kts 48°
2026-05-08 14:29 -1.59845 116.46458 15119 ft 346 kts 48°
2026-05-08 14:29 -1.58226 116.48231 14865 ft 344 kts 48°
2026-05-08 14:30 -1.56616 116.49994 14611 ft 343 kts 48°
2026-05-08 14:30 -1.55008 116.51755 14355 ft 343 kts 48°
2026-05-08 14:30 -1.54467 116.52348 14253 ft 342 kts 48°
2026-05-08 14:30 -1.53893 116.52976 14182 ft 342 kts 48°
2026-05-08 14:31 -1.52342 116.54779 13887 ft 342 kts 57°
2026-05-08 14:31 -1.51319 116.56925 13466 ft 344 kts 70°
2026-05-08 14:31 -1.50489 116.59172 13007 ft 345 kts 71°
2026-05-08 14:32 -1.49122 116.62937 12258 ft 342 kts 70°
2026-05-08 14:32 -1.48312 116.65132 11834 ft 340 kts 70°
2026-05-08 14:32 -1.47212 116.68074 11274 ft 337 kts 70°
2026-05-08 14:32 -1.46655 116.69553 10992 ft 336 kts 69°
2026-05-08 14:33 -1.45834 116.71729 10572 ft 334 kts 69°
2026-05-08 14:33 -1.45025 116.73868 10146 ft 333 kts 69°
2026-05-08 14:33 -1.44209 116.76026 9763 ft 330 kts 69°
2026-05-08 14:33 -1.43418 116.78115 9752 ft 315 kts 69°
2026-05-08 14:34 -1.42649 116.80146 9665 ft 302 kts 69°
2026-05-08 14:34 -1.41940 116.82054 9578 ft 291 kts 70°
2026-05-08 14:34 -1.41257 116.83920 9424 ft 283 kts 70°
2026-05-08 14:34 -1.40579 116.85779 9116 ft 280 kts 70°
2026-05-08 14:35 -1.39921 116.87579 8777 ft 279 kts 70°
2026-05-08 14:35 -1.39254 116.89400 8449 ft 278 kts 70°
2026-05-08 14:35 -1.38591 116.91209 8150 ft 276 kts 69°
2026-05-08 14:35 -1.37932 116.93008 7841 ft 275 kts 69°
2026-05-08 14:36 -1.37276 116.94796 7536 ft 274 kts 69°
2026-05-08 14:36 -1.36624 116.96577 7240 ft 272 kts 69°
2026-05-08 14:36 -1.35976 116.98351 6946 ft 271 kts 69°
2026-05-08 14:36 -1.35333 117.00110 6660 ft 269 kts 69°
2026-05-08 14:37 -1.34694 117.01861 6370 ft 268 kts 69°
2026-05-08 14:37 -1.34058 117.03603 6076 ft 266 kts 68°
2026-05-08 14:37 -1.33424 117.05338 5761 ft 266 kts 69°
2026-05-08 14:37 -1.32790 117.07073 5417 ft 266 kts 69°
2026-05-08 14:38 -1.32158 117.08803 5138 ft 264 kts 68°
2026-05-08 14:38 -1.31370 117.10431 4863 ft 261 kts 49°
2026-05-08 14:38 -1.29940 117.11497 4642 ft 257 kts 19°
2026-05-08 14:38 -1.28192 117.11752 4401 ft 256 kts 354°
2026-05-08 14:39 -1.26481 117.11305 4167 ft 255 kts 338°
2026-05-08 14:39 -1.24848 117.10610 3929 ft 254 kts 335°
2026-05-08 14:39 -1.23238 117.09896 3680 ft 252 kts 335°
2026-05-08 14:39 -1.21646 117.09199 3439 ft 248 kts 335°
2026-05-08 14:40 -1.20278 117.08258 3256 ft 233 kts 306°
2026-05-08 14:40 -1.19742 117.06842 3153 ft 210 kts 268°
2026-05-08 14:40 -1.20099 117.05519 3060 ft 190 kts 249°
2026-05-08 14:40 -1.20575 117.04318 2818 ft 183 kts 248°
2026-05-08 14:41 -1.21058 117.03148 2602 ft 179 kts 247°
2026-05-08 14:41 -1.21531 117.02022 2378 ft 174 kts 247°
2026-05-08 14:41 -1.22009 117.00888 2149 ft 179 kts 247°
2026-05-08 14:41 -1.22484 116.99759 1943 ft 170 kts 247°
2026-05-08 14:42 -1.22921 116.98720 1711 ft 155 kts 246°
2026-05-08 14:42 -1.23323 116.97765 1517 ft 145 kts 247°
2026-05-08 14:42 -1.23715 116.96834 1332 ft 147 kts 246°
2026-05-08 14:42 -1.24114 116.95886 1140 ft 148 kts 246°
2026-05-08 14:43 -1.24513 116.94938 957 ft 148 kts 246°
2026-05-08 14:43 -1.24911 116.93994 782 ft 147 kts 247°
2026-05-08 14:43 -1.25306 116.93054 596 ft 146 kts 246°
2026-05-08 14:43 -1.25695 116.92131 408 ft 147 kts 247°
2026-05-08 14:44 -1.26097 116.91187 215 ft 146 kts 247°
2026-05-08 14:44 -1.26494 116.90266 27 ft 144 kts 247°
2026-05-08 14:44 -1.26816 116.89505 22 ft 89 kts 246°
2026-05-08 14:44 -1.26978 116.89127 18 ft 41 kts 249°
2026-05-08 14:45 -1.26985 116.88938 19 ft 23 kts 335°
2026-05-08 14:45 -1.26856 116.88969 20 ft 22 kts 69°
2026-05-08 14:45 -1.26795 116.89109 20 ft 22 kts 67°
2026-05-08 14:45 -1.26738 116.89246 20 ft 21 kts 67°
2026-05-08 14:46 -1.26682 116.89379 20 ft 20 kts 67°
2026-05-08 14:46 -1.26628 116.89507 22 ft 20 kts 68°
2026-05-08 14:46 -1.26576 116.89632 20 ft 19 kts 68°
2026-05-08 14:46 -1.26525 116.89753 20 ft 19 kts 66°
2026-05-08 14:47 -1.26476 116.89870 20 ft 18 kts 68°
2026-05-08 14:47 -1.26428 116.89983 20 ft 17 kts 67°
2026-05-08 14:47 -1.26363 116.90055 20 ft 14 kts
2026-05-08 14:47 -1.26277 116.90012 21 ft 7 kts 337°
2026-05-08 14:48 -1.26254 116.90002 22 ft 0 kts 338°